contact:dominique.lefevre@mio.osupytheas.fr, maurice.libes@osupytheas.fr, didier.mallarino@osupytheas.fr
Project:EMSO http://www.emso-fr.org/EMSO-France
Depth: 2436.0 m
Title:EMSO Ligure Ouest : Data MII capteur MICROCAT
DateTime_Computer,Latitude,Longitude,Temperature,Conductivity,Pressure,DateTime_Instrument
DateTime_Computer,Latitude,Longitude,degC,S m-1,dbar,DateTime_Instrument
2021-04-25T00:02:14Z,42.805,6.029,13.2983,4.59987,2469.456,2021-4-25T02:03:24Z
2021-04-25T00:05:18Z,42.805,6.029,13.2981,4.59987,2469.48,2021-4-25T02:06:27Z
2021-04-25T00:08:21Z,42.805,6.029,13.2982,4.59987,2469.48,2021-4-25T02:09:30Z
2021-04-25T00:11:24Z,42.805,6.029,13.2980,4.59988,2469.48,2021-4-25T02:12:33Z
2021-04-25T00:14:27Z,42.805,6.029,13.2980,4.59986,2469.54,2021-4-25T02:15:36Z
2021-04-25T00:17:30Z,42.805,6.029,13.2981,4.59987,2469.517,2021-4-25T02:18:39Z
2021-04-25T00:20:33Z,42.805,6.029,13.2982,4.59985,2469.526,2021-4-25T02:21:43Z
2021-04-25T00:23:36Z,42.805,6.029,13.2982,4.59985,2469.563,2021-4-25T02:24:46Z
2021-04-25T00:26:39Z,42.805,6.029,13.2979,4.59987,2469.55,2021-4-25T02:27:49Z
2021-04-25T00:29:43Z,42.805,6.029,13.2978,4.59990,2469.563,2021-4-25T02:30:52Z
2021-04-25T00:32:46Z,42.805,6.029,13.2978,4.59988,2469.563,2021-4-25T02:33:55Z
2021-04-25T00:35:49Z,42.805,6.029,13.2981,4.59988,2469.55,2021-4-25T02:36:58Z
2021-04-25T00:38:52Z,42.805,6.029,13.2986,4.59987,2469.573,2021-4-25T02:40:01Z
2021-04-25T00:41:55Z,42.805,6.029,13.2980,4.59989,2469.573,2021-4-25T02:43:04Z
2021-04-25T00:44:58Z,42.805,6.029,13.2982,4.59986,2469.573,2021-4-25T02:46:08Z
2021-04-25T00:48:01Z,42.805,6.029,13.2982,4.59986,2469.573,2021-4-25T02:49:11Z
2021-04-25T00:51:04Z,42.805,6.029,13.2979,4.59988,2469.597,2021-4-25T02:52:14Z
2021-04-25T00:54:08Z,42.805,6.029,13.2983,4.59989,2469.597,2021-4-25T02:55:17Z
2021-04-25T00:57:11Z,42.805,6.029,13.2979,4.59987,2469.643,2021-4-25T02:58:20Z
2021-04-25T01:00:14Z,42.805,6.029,13.2976,4.59986,2469.62,2021-4-25T03:01:23Z
2021-04-25T01:03:17Z,42.805,6.029,13.2979,4.59988,2469.597,2021-4-25T03:04:26Z
2021-04-25T01:06:20Z,42.805,6.029,13.2981,4.59990,2469.667,2021-4-25T03:07:29Z
2021-04-25T01:09:23Z,42.805,6.029,13.2983,4.59988,2469.62,2021-4-25T03:10:33Z
2021-04-25T01:12:26Z,42.805,6.029,13.2982,4.59988,2469.643,2021-4-25T03:13:36Z
2021-04-25T01:15:29Z,42.805,6.029,13.2982,4.59987,2469.634,2021-4-25T03:16:39Z
2021-04-25T01:18:33Z,42.805,6.029,13.2977,4.59990,2469.643,2021-4-25T03:19:42Z
2021-04-25T01:21:36Z,42.805,6.029,13.2979,4.59985,2469.704,2021-4-25T03:22:45Z
2021-04-25T01:24:39Z,42.805,6.029,13.2982,4.59986,2469.713,2021-4-25T03:25:48Z
2021-04-25T01:27:42Z,42.805,6.029,13.2983,4.59992,2469.704,2021-4-25T03:28:51Z
2021-04-25T01:30:45Z,42.805,6.029,13.2982,4.59987,2469.713,2021-4-25T03:31:54Z
2021-04-25T01:33:48Z,42.805,6.029,13.2979,4.59986,2469.713,2021-4-25T03:34:58Z
2021-04-25T01:36:51Z,42.805,6.029,13.2981,4.59991,2469.737,2021-4-25T03:38:01Z
2021-04-25T01:39:54Z,42.805,6.029,13.2982,4.59988,2469.704,2021-4-25T03:41:04Z
2021-04-25T01:42:58Z,42.805,6.029,13.2982,4.59988,2469.69,2021-4-25T03:44:07Z
2021-04-25T01:46:01Z,42.805,6.029,13.2984,4.59989,2469.676,2021-4-25T03:47:10Z
2021-04-25T01:49:04Z,42.805,6.029,13.2979,4.59989,2469.727,2021-4-25T03:50:13Z
2021-04-25T01:52:07Z,42.805,6.029,13.2981,4.59988,2469.69,2021-4-25T03:53:16Z
2021-04-25T01:55:10Z,42.805,6.029,13.2981,4.59992,2469.69,2021-4-25T03:56:19Z
2021-04-25T01:58:13Z,42.805,6.029,13.2979,4.59989,2469.713,2021-4-25T03:59:22Z
2021-04-25T02:01:16Z,42.805,6.029,13.2982,4.59987,2469.69,2021-4-25T04:02:26Z
2021-04-25T02:04:19Z,42.805,6.029,13.2979,4.59991,2469.69,2021-4-25T04:05:29Z
2021-04-25T02:07:22Z,42.805,6.029,13.2982,4.59988,2469.704,2021-4-25T04:08:32Z
2021-04-25T02:10:26Z,42.805,6.029,13.2983,4.59990,2469.704,2021-4-25T04:11:35Z
2021-04-25T02:13:29Z,42.805,6.029,13.2978,4.59988,2469.657,2021-4-25T04:14:38Z
2021-04-25T02:16:32Z,42.805,6.029,13.2982,4.59987,2469.704,2021-4-25T04:17:41Z
2021-04-25T02:19:35Z,42.805,6.029,13.2983,4.59988,2469.643,2021-4-25T04:20:44Z
2021-04-25T02:22:38Z,42.805,6.029,13.2982,4.59988,2469.68,2021-4-25T04:23:48Z
2021-04-25T02:25:41Z,42.805,6.029,13.2985,4.59990,2469.68,2021-4-25T04:26:51Z
2021-04-25T02:28:44Z,42.805,6.029,13.2980,4.59991,2469.68,2021-4-25T04:29:54Z
2021-04-25T02:31:48Z,42.805,6.029,13.2983,4.59990,2469.68,2021-4-25T04:32:57Z
2021-04-25T02:34:51Z,42.805,6.029,13.2984,4.59989,2469.657,2021-4-25T04:36:00Z
2021-04-25T02:37:54Z,42.805,6.029,13.2979,4.59988,2469.704,2021-4-25T04:39:03Z
2021-04-25T02:40:57Z,42.805,6.029,13.2979,4.59989,2469.667,2021-4-25T04:42:06Z
2021-04-25T02:44:00Z,42.805,6.029,13.2986,4.59987,2469.68,2021-4-25T04:45:09Z
2021-04-25T02:47:03Z,42.805,6.029,13.2983,4.59988,2469.704,2021-4-25T04:48:12Z
2021-04-25T02:50:06Z,42.805,6.029,13.2983,4.59989,2469.643,2021-4-25T04:51:16Z
2021-04-25T02:53:09Z,42.805,6.029,13.2986,4.59991,2469.653,2021-4-25T04:54:19Z
2021-04-25T02:56:12Z,42.805,6.029,13.2984,4.59987,2469.634,2021-4-25T04:57:22Z
2021-04-25T02:59:16Z,42.805,6.029,13.2983,4.59988,2469.667,2021-4-25T05:00:25Z
2021-04-25T03:02:19Z,42.805,6.029,13.2983,4.59989,2469.68,2021-4-25T05:03:28Z
2021-04-25T03:05:22Z,42.805,6.029,13.2980,4.59991,2469.657,2021-4-25T05:06:31Z
2021-04-25T03:08:25Z,42.805,6.029,13.2979,4.59991,2469.69,2021-4-25T05:09:34Z
2021-04-25T03:11:28Z,42.805,6.029,13.2980,4.59988,2469.643,2021-4-25T05:12:37Z
2021-04-25T03:14:31Z,42.805,6.029,13.2982,4.59989,2469.68,2021-4-25T05:15:41Z
2021-04-25T03:17:34Z,42.805,6.029,13.2980,4.59988,2469.704,2021-4-25T05:18:44Z
2021-04-25T03:20:37Z,42.805,6.029,13.2982,4.59989,2469.68,2021-4-25T05:21:47Z
2021-04-25T03:23:41Z,42.805,6.029,13.2983,4.59988,2469.667,2021-4-25T05:24:50Z
2021-04-25T03:26:44Z,42.805,6.029,13.2982,4.59990,2469.667,2021-4-25T05:27:53Z
2021-04-25T03:29:47Z,42.805,6.029,13.2983,4.59988,2469.704,2021-4-25T05:30:56Z
2021-04-25T03:32:50Z,42.805,6.029,13.2980,4.59988,2469.69,2021-4-25T05:33:59Z
2021-04-25T03:35:53Z,42.805,6.029,13.2980,4.59990,2469.69,2021-4-25T05:37:02Z
2021-04-25T03:38:56Z,42.805,6.029,13.2983,4.59990,2469.667,2021-4-25T05:40:06Z
2021-04-25T03:41:59Z,42.805,6.029,13.2983,4.59988,2469.657,2021-4-25T05:43:09Z
2021-04-25T03:45:02Z,42.805,6.029,13.2979,4.59988,2469.68,2021-4-25T05:46:12Z
2021-04-25T03:48:06Z,42.805,6.029,13.2979,4.59989,2469.68,2021-4-25T05:49:15Z
2021-04-25T03:51:09Z,42.805,6.029,13.2983,4.59989,2469.713,2021-4-25T05:52:18Z
2021-04-25T03:54:12Z,42.805,6.029,13.2982,4.59990,2469.737,2021-4-25T05:55:21Z
2021-04-25T03:57:15Z,42.805,6.029,13.2982,4.59990,2469.713,2021-4-25T05:58:24Z
2021-04-25T04:00:18Z,42.805,6.029,13.2982,4.59990,2469.69,2021-4-25T06:01:27Z
2021-04-25T04:03:21Z,42.805,6.029,13.2980,4.59990,2469.69,2021-4-25T06:04:31Z
2021-04-25T04:06:24Z,42.805,6.029,13.2979,4.59988,2469.667,2021-4-25T06:07:34Z
2021-04-25T04:09:27Z,42.805,6.029,13.2982,4.59991,2469.704,2021-4-25T06:10:37Z
2021-04-25T04:12:31Z,42.805,6.029,13.2984,4.59989,2469.69,2021-4-25T06:13:40Z
2021-04-25T04:15:34Z,42.805,6.029,13.2983,4.59995,2469.704,2021-4-25T06:16:43Z
2021-04-25T04:18:37Z,42.805,6.029,13.2981,4.59989,2469.713,2021-4-25T06:19:46Z
2021-04-25T04:21:40Z,42.805,6.029,13.2980,4.59988,2469.69,2021-4-25T06:22:49Z
2021-04-25T04:24:43Z,42.805,6.029,13.2979,4.59989,2469.713,2021-4-25T06:25:52Z
2021-04-25T04:27:46Z,42.805,6.029,13.2982,4.59988,2469.704,2021-4-25T06:28:56Z
2021-04-25T04:30:49Z,42.805,6.029,13.2983,4.59988,2469.69,2021-4-25T06:31:59Z
2021-04-25T04:33:52Z,42.805,6.029,13.2979,4.59991,2469.69,2021-4-25T06:35:02Z
2021-04-25T04:36:56Z,42.805,6.029,13.2981,4.59988,2469.704,2021-4-25T06:38:05Z
2021-04-25T04:39:59Z,42.805,6.029,13.2982,4.59988,2469.69,2021-4-25T06:41:08Z
2021-04-25T04:43:02Z,42.805,6.029,13.2982,4.59989,2469.69,2021-4-25T06:44:11Z
2021-04-25T04:46:05Z,42.805,6.029,13.2983,4.59987,2469.727,2021-4-25T06:47:14Z
2021-04-25T04:49:08Z,42.805,6.029,13.2982,4.59988,2469.713,2021-4-25T06:50:17Z
2021-04-25T04:52:11Z,42.805,6.029,13.2978,4.59992,2469.704,2021-4-25T06:53:21Z
2021-04-25T04:55:14Z,42.805,6.029,13.2979,4.59990,2469.727,2021-4-25T06:56:24Z
2021-04-25T04:58:17Z,42.805,6.029,13.2981,4.59988,2469.69,2021-4-25T06:59:27Z
2021-04-25T05:01:21Z,42.805,6.029,13.2984,4.59989,2469.737,2021-4-25T07:02:30Z
2021-04-25T05:04:24Z,42.805,6.029,13.2982,4.59990,2469.713,2021-4-25T07:05:33Z
2021-04-25T05:07:27Z,42.805,6.029,13.2981,4.59988,2469.704,2021-4-25T07:08:36Z
2021-04-25T05:10:30Z,42.805,6.029,13.2985,4.59989,2469.704,2021-4-25T07:11:39Z
2021-04-25T05:13:33Z,42.805,6.029,13.2980,4.59989,2469.69,2021-4-25T07:14:42Z
2021-04-25T05:16:36Z,42.805,6.029,13.2976,4.59990,2469.69,2021-4-25T07:17:46Z
2021-04-25T05:19:39Z,42.805,6.029,13.2978,4.59990,2469.676,2021-4-25T07:20:49Z
2021-04-25T05:22:42Z,42.805,6.029,13.2980,4.59990,2469.713,2021-4-25T07:23:52Z
2021-04-25T05:25:46Z,42.805,6.029,13.2979,4.59990,2469.68,2021-4-25T07:26:55Z
2021-04-25T05:28:49Z,42.805,6.029,13.2979,4.59988,2469.704,2021-4-25T07:29:58Z
2021-04-25T05:31:52Z,42.805,6.029,13.2982,4.59989,2469.76,2021-4-25T07:33:01Z
2021-04-25T05:34:55Z,42.805,6.029,13.2979,4.59990,2469.713,2021-4-25T07:36:04Z
2021-04-25T05:37:58Z,42.805,6.029,13.2983,4.59990,2469.713,2021-4-25T07:39:07Z
2021-04-25T05:41:01Z,42.805,6.029,13.2983,4.59991,2469.713,2021-4-25T07:42:11Z
2021-04-25T05:44:04Z,42.805,6.029,13.2982,4.59992,2469.727,2021-4-25T07:45:14Z
2021-04-25T05:47:07Z,42.805,6.029,13.2983,4.59989,2469.737,2021-4-25T07:48:17Z
2021-04-25T05:50:11Z,42.805,6.029,13.2982,4.59988,2469.737,2021-4-25T07:51:20Z
2021-04-25T05:53:14Z,42.805,6.029,13.2982,4.59991,2469.713,2021-4-25T07:54:23Z
2021-04-25T05:56:17Z,42.805,6.029,13.2980,4.59990,2469.713,2021-4-25T07:57:26Z
2021-04-25T05:59:20Z,42.805,6.029,13.2982,4.59988,2469.75,2021-4-25T08:00:29Z
2021-04-25T06:02:23Z,42.805,6.029,13.2983,4.59989,2469.727,2021-4-25T08:03:32Z
2021-04-25T06:05:26Z,42.805,6.029,13.2986,4.59988,2469.737,2021-4-25T08:06:36Z
2021-04-25T06:08:29Z,42.805,6.029,13.2982,4.59988,2469.713,2021-4-25T08:09:39Z
2021-04-25T06:11:32Z,42.805,6.029,13.2982,4.59989,2469.713,2021-4-25T08:12:42Z
2021-04-25T06:14:36Z,42.805,6.029,13.2976,4.59989,2469.713,2021-4-25T08:15:45Z
2021-04-25T06:17:39Z,42.805,6.029,13.2980,4.59989,2469.713,2021-4-25T08:18:48Z
2021-04-25T06:20:42Z,42.805,6.029,13.2979,4.59991,2469.704,2021-4-25T08:21:51Z
2021-04-25T06:23:45Z,42.805,6.029,13.2979,4.59991,2469.713,2021-4-25T08:24:54Z
2021-04-25T06:26:48Z,42.805,6.029,13.2982,4.59989,2469.69,2021-4-25T08:27:57Z
2021-04-25T06:29:51Z,42.805,6.029,13.2981,4.59990,2469.704,2021-4-25T08:31:01Z
2021-04-25T06:32:54Z,42.805,6.029,13.2979,4.59988,2469.704,2021-4-25T08:34:04Z
2021-04-25T06:35:57Z,42.805,6.029,13.2982,4.59988,2469.713,2021-4-25T08:37:07Z
2021-04-25T06:39:00Z,42.805,6.029,13.2981,4.59989,2469.713,2021-4-25T08:40:10Z
2021-04-25T06:42:04Z,42.805,6.029,13.2982,4.59989,2469.69,2021-4-25T08:43:13Z
2021-04-25T06:45:07Z,42.805,6.029,13.2980,4.59990,2469.69,2021-4-25T08:46:16Z
2021-04-25T06:48:10Z,42.805,6.029,13.2983,4.59988,2469.68,2021-4-25T08:49:19Z
2021-04-25T06:51:13Z,42.805,6.029,13.2979,4.59988,2469.68,2021-4-25T08:52:22Z
2021-04-25T06:54:16Z,42.805,6.029,13.2981,4.59991,2469.704,2021-4-25T08:55:26Z
2021-04-25T06:57:19Z,42.805,6.029,13.2983,4.59989,2469.704,2021-4-25T08:58:29Z
2021-04-25T07:00:22Z,42.805,6.029,13.2983,4.59990,2469.69,2021-4-25T09:01:32Z
2021-04-25T07:03:25Z,42.805,6.029,13.2983,4.59991,2469.667,2021-4-25T09:04:35Z
2021-04-25T07:06:29Z,42.805,6.029,13.2982,4.59989,2469.62,2021-4-25T09:07:38Z
2021-04-25T07:09:32Z,42.805,6.029,13.2983,4.59988,2469.667,2021-4-25T09:10:41Z
2021-04-25T07:12:35Z,42.805,6.029,13.2981,4.59990,2469.643,2021-4-25T09:13:44Z
2021-04-25T07:15:38Z,42.805,6.029,13.2977,4.59989,2469.704,2021-4-25T09:16:47Z
2021-04-25T07:18:41Z,42.805,6.029,13.2983,4.59993,2469.68,2021-4-25T09:19:51Z
2021-04-25T07:21:44Z,42.805,6.029,13.2982,4.59991,2469.68,2021-4-25T09:22:54Z
2021-04-25T07:24:47Z,42.805,6.029,13.2983,4.59991,2469.643,2021-4-25T09:25:57Z
2021-04-25T07:27:50Z,42.805,6.029,13.2983,4.59990,2469.657,2021-4-25T09:29:00Z
2021-04-25T07:30:54Z,42.805,6.029,13.2981,4.59991,2469.62,2021-4-25T09:32:03Z
2021-04-25T07:33:57Z,42.805,6.029,13.2983,4.59990,2469.657,2021-4-25T09:35:06Z
2021-04-25T07:37:00Z,42.805,6.029,13.2977,4.59988,2469.704,2021-4-25T09:38:09Z
2021-04-25T07:40:03Z,42.805,6.029,13.2981,4.59991,2469.62,2021-4-25T09:41:12Z
2021-04-25T07:43:06Z,42.805,6.029,13.2982,4.59989,2469.657,2021-4-25T09:44:16Z
2021-04-25T07:46:09Z,42.805,6.029,13.2982,4.59990,2469.634,2021-4-25T09:47:19Z
2021-04-25T07:49:12Z,42.805,6.029,13.2982,4.59990,2469.643,2021-4-25T09:50:22Z
2021-04-25T07:52:15Z,42.805,6.029,13.2981,4.59988,2469.634,2021-4-25T09:53:25Z
2021-04-25T07:55:19Z,42.805,6.029,13.2984,4.59988,2469.643,2021-4-25T09:56:28Z
2021-04-25T07:58:22Z,42.805,6.029,13.2983,4.59989,2469.657,2021-4-25T09:59:31Z
2021-04-25T08:01:25Z,42.805,6.029,13.2979,4.59988,2469.643,2021-4-25T10:02:34Z
2021-04-25T08:04:28Z,42.805,6.029,13.2982,4.59989,2469.643,2021-4-25T10:05:37Z
2021-04-25T08:07:31Z,42.805,6.029,13.2980,4.59990,2469.597,2021-4-25T10:08:41Z
2021-04-25T08:10:34Z,42.805,6.029,13.2974,4.59990,2469.61,2021-4-25T10:11:44Z
2021-04-25T08:13:37Z,42.805,6.029,13.2982,4.59990,2469.667,2021-4-25T10:14:47Z
2021-04-25T08:16:40Z,42.805,6.029,13.2980,4.59988,2469.643,2021-4-25T10:17:50Z
2021-04-25T08:19:44Z,42.805,6.029,13.2981,4.59988,2469.634,2021-4-25T10:20:53Z
2021-04-25T08:22:47Z,42.805,6.029,13.2979,4.59988,2469.62,2021-4-25T10:23:56Z
2021-04-25T08:25:50Z,42.805,6.029,13.2982,4.59990,2469.62,2021-4-25T10:26:59Z
2021-04-25T08:28:53Z,42.805,6.029,13.2984,4.59990,2469.634,2021-4-25T10:30:02Z
2021-04-25T08:31:56Z,42.805,6.029,13.2983,4.59990,2469.634,2021-4-25T10:33:06Z
2021-04-25T08:34:59Z,42.805,6.029,13.2986,4.59990,2469.61,2021-4-25T10:36:09Z
2021-04-25T08:38:02Z,42.805,6.029,13.2979,4.59988,2469.597,2021-4-25T10:39:12Z
2021-04-25T08:41:05Z,42.805,6.029,13.2983,4.59987,2469.61,2021-4-25T10:42:15Z
2021-04-25T08:44:09Z,42.805,6.029,13.2979,4.59987,2469.61,2021-4-25T10:45:18Z
2021-04-25T08:47:12Z,42.805,6.029,13.2979,4.59991,2469.573,2021-4-25T10:48:21Z
2021-04-25T08:50:15Z,42.805,6.029,13.2980,4.59987,2469.61,2021-4-25T10:51:24Z
2021-04-25T08:53:18Z,42.805,6.029,13.2984,4.59988,2469.55,2021-4-25T10:54:27Z
2021-04-25T08:56:21Z,42.805,6.029,13.2982,4.59987,2469.62,2021-4-25T10:57:31Z
2021-04-25T08:59:24Z,42.805,6.029,13.2979,4.59986,2469.61,2021-4-25T11:00:34Z
2021-04-25T09:02:27Z,42.805,6.029,13.2983,4.59987,2469.597,2021-4-25T11:03:37Z
2021-04-25T09:05:30Z,42.805,6.029,13.2979,4.59988,2469.573,2021-4-25T11:06:40Z
2021-04-25T09:08:34Z,42.805,6.029,13.2985,4.59986,2469.634,2021-4-25T11:09:43Z
2021-04-25T09:11:37Z,42.805,6.029,13.2982,4.59987,2469.587,2021-4-25T11:12:46Z
2021-04-25T09:14:40Z,42.805,6.029,13.2983,4.59988,2469.61,2021-4-25T11:15:49Z
2021-04-25T09:17:43Z,42.805,6.029,13.2981,4.59989,2469.587,2021-4-25T11:18:52Z
2021-04-25T09:20:46Z,42.805,6.029,13.2982,4.59988,2469.563,2021-4-25T11:21:56Z
2021-04-25T09:23:49Z,42.805,6.029,13.2982,4.59986,2469.573,2021-4-25T11:24:59Z
2021-04-25T09:26:52Z,42.805,6.029,13.2982,4.59989,2469.61,2021-4-25T11:28:02Z
2021-04-25T09:29:56Z,42.805,6.029,13.2982,4.59989,2469.61,2021-4-25T11:31:05Z
2021-04-25T09:32:59Z,42.805,6.029,13.2980,4.59988,2469.597,2021-4-25T11:34:08Z
2021-04-25T09:36:02Z,42.805,6.029,13.2984,4.59989,2469.62,2021-4-25T11:37:11Z
2021-04-25T09:39:05Z,42.805,6.029,13.2979,4.59988,2469.643,2021-4-25T11:40:14Z
2021-04-25T09:42:08Z,42.805,6.029,13.2982,4.59988,2469.573,2021-4-25T11:43:17Z
2021-04-25T09:45:11Z,42.805,6.029,13.2983,4.59986,2469.61,2021-4-25T11:46:21Z
2021-04-25T09:48:14Z,42.805,6.029,13.2979,4.59987,2469.61,2021-4-25T11:49:24Z
2021-04-25T09:51:17Z,42.805,6.029,13.2983,4.59988,2469.587,2021-4-25T11:52:27Z
2021-04-25T09:54:21Z,42.805,6.029,13.2983,4.59986,2469.55,2021-4-25T11:55:30Z
2021-04-25T09:57:24Z,42.805,6.029,13.2980,4.59986,2469.573,2021-4-25T11:58:33Z
2021-04-25T10:00:27Z,42.805,6.029,13.2983,4.59987,2469.587,2021-4-25T12:01:36Z
2021-04-25T10:03:30Z,42.805,6.029,13.2981,4.59987,2469.573,2021-4-25T12:04:39Z
2021-04-25T10:06:33Z,42.805,6.029,13.2980,4.59986,2469.55,2021-4-25T12:07:42Z
2021-04-25T10:09:36Z,42.805,6.029,13.2977,4.59987,2469.587,2021-4-25T12:10:46Z
2021-04-25T10:12:39Z,42.805,6.029,13.2981,4.59986,2469.573,2021-4-25T12:13:49Z
2021-04-25T10:15:42Z,42.805,6.029,13.2979,4.59988,2469.573,2021-4-25T12:16:52Z
2021-04-25T10:18:46Z,42.805,6.029,13.2983,4.59989,2469.573,2021-4-25T12:19:55Z
2021-04-25T10:21:49Z,42.805,6.029,13.2982,4.59988,2469.563,2021-4-25T12:22:58Z
2021-04-25T10:24:52Z,42.805,6.029,13.2984,4.59988,2469.563,2021-4-25T12:26:01Z
2021-04-25T10:27:55Z,42.805,6.029,13.2982,4.59987,2469.55,2021-4-25T12:29:04Z
2021-04-25T10:30:58Z,42.805,6.029,13.2981,4.59987,2469.55,2021-4-25T12:32:08Z
2021-04-25T10:34:01Z,42.805,6.029,13.2981,4.59987,2469.526,2021-4-25T12:35:11Z
2021-04-25T10:37:04Z,42.805,6.029,13.2981,4.59987,2469.503,2021-4-25T12:38:14Z
2021-04-25T10:40:07Z,42.805,6.029,13.2979,4.59987,2469.526,2021-4-25T12:41:17Z
2021-04-25T10:43:11Z,42.805,6.029,13.2981,4.59989,2469.526,2021-4-25T12:44:20Z
2021-04-25T10:46:14Z,42.805,6.029,13.2983,4.59986,2469.55,2021-4-25T12:47:23Z
2021-04-25T10:49:17Z,42.805,6.029,13.2985,4.59985,2469.526,2021-4-25T12:50:26Z
2021-04-25T10:52:20Z,42.805,6.029,13.2982,4.59986,2469.503,2021-4-25T12:53:29Z
2021-04-25T10:55:23Z,42.805,6.029,13.2979,4.59986,2469.503,2021-4-25T12:56:32Z
2021-04-25T10:58:26Z,42.805,6.029,13.2982,4.59986,2469.503,2021-4-25T12:59:36Z
2021-04-25T11:01:29Z,42.805,6.029,13.2982,4.59986,2469.503,2021-4-25T13:02:39Z
2021-04-25T11:04:32Z,42.805,6.029,13.2982,4.59987,2469.494,2021-4-25T13:05:42Z
2021-04-25T11:07:36Z,42.805,6.029,13.2982,4.59985,2469.47,2021-4-25T13:08:45Z
2021-04-25T11:10:39Z,42.805,6.029,13.2984,4.59986,2469.503,2021-4-25T13:11:48Z
2021-04-25T11:13:42Z,42.805,6.029,13.2982,4.59986,2469.419,2021-4-25T13:14:51Z
2021-04-25T11:16:45Z,42.805,6.029,13.2983,4.59986,2469.48,2021-4-25T13:17:54Z
2021-04-25T11:19:48Z,42.805,6.029,13.2983,4.59987,2469.47,2021-4-25T13:20:58Z
2021-04-25T11:22:51Z,42.805,6.029,13.2979,4.59989,2469.47,2021-4-25T13:24:01Z
2021-04-25T11:25:54Z,42.805,6.029,13.2982,4.59986,2469.41,2021-4-25T13:27:04Z
2021-04-25T11:28:57Z,42.805,6.029,13.2983,4.59985,2469.433,2021-4-25T13:30:07Z
2021-04-25T11:32:01Z,42.805,6.029,13.2980,4.59986,2469.424,2021-4-25T13:33:10Z
2021-04-25T11:35:04Z,42.805,6.029,13.2981,4.59985,2469.41,2021-4-25T13:36:13Z
2021-04-25T11:38:07Z,42.805,6.029,13.2983,4.59986,2469.41,2021-4-25T13:39:16Z
2021-04-25T11:41:10Z,42.805,6.029,13.2978,4.59986,2469.47,2021-4-25T13:42:19Z
2021-04-25T11:44:13Z,42.805,6.029,13.2981,4.59985,2469.447,2021-4-25T13:45:23Z
2021-04-25T11:47:16Z,42.805,6.029,13.2979,4.59986,2469.424,2021-4-25T13:48:26Z
2021-04-25T11:50:19Z,42.805,6.029,13.2978,4.59986,2469.433,2021-4-25T13:51:29Z
2021-04-25T11:53:23Z,42.805,6.029,13.2982,4.59986,2469.447,2021-4-25T13:54:32Z
2021-04-25T11:56:26Z,42.805,6.029,13.2981,4.59985,2469.447,2021-4-25T13:57:35Z
2021-04-25T11:59:29Z,42.805,6.029,13.2982,4.59986,2469.433,2021-4-25T14:00:38Z
2021-04-25T12:02:32Z,42.805,6.029,13.2978,4.59985,2469.4,2021-4-25T14:03:41Z
2021-04-25T12:05:35Z,42.805,6.029,13.2979,4.59986,2469.433,2021-4-25T14:06:44Z
2021-04-25T12:08:38Z,42.805,6.029,13.2981,4.59986,2469.433,2021-4-25T14:09:48Z
2021-04-25T12:11:41Z,42.805,6.029,13.2982,4.59984,2469.433,2021-4-25T14:12:51Z
2021-04-25T12:14:44Z,42.805,6.029,13.2979,4.59986,2469.41,2021-4-25T14:15:54Z
2021-04-25T12:17:48Z,42.805,6.029,13.2984,4.59986,2469.424,2021-4-25T14:18:57Z
2021-04-25T12:20:51Z,42.805,6.029,13.2980,4.59985,2469.433,2021-4-25T14:22:00Z
2021-04-25T12:23:54Z,42.805,6.029,13.2979,4.59986,2469.41,2021-4-25T14:25:03Z
2021-04-25T12:26:57Z,42.805,6.029,13.2982,4.59986,2469.41,2021-4-25T14:28:06Z
2021-04-25T12:30:00Z,42.805,6.029,13.2979,4.59986,2469.41,2021-4-25T14:31:09Z
2021-04-25T12:33:03Z,42.805,6.029,13.2978,4.59986,2469.456,2021-4-25T14:34:13Z
2021-04-25T12:36:06Z,42.805,6.029,13.2978,4.59985,2469.433,2021-4-25T14:37:16Z
2021-04-25T12:39:09Z,42.805,6.029,13.2979,4.59988,2469.456,2021-4-25T14:40:19Z
2021-04-25T12:42:13Z,42.805,6.029,13.2982,4.59983,2469.447,2021-4-25T14:43:22Z
2021-04-25T12:45:16Z,42.805,6.029,13.2983,4.59984,2469.433,2021-4-25T14:46:25Z
2021-04-25T12:48:19Z,42.805,6.029,13.2979,4.59985,2469.433,2021-4-25T14:49:28Z
2021-04-25T12:51:22Z,42.805,6.029,13.2980,4.59986,2469.41,2021-4-25T14:52:31Z
2021-04-25T12:54:25Z,42.805,6.029,13.2979,4.59986,2469.433,2021-4-25T14:55:34Z
2021-04-25T12:57:28Z,42.805,6.029,13.2981,4.59987,2469.41,2021-4-25T14:58:38Z
2021-04-25T13:00:31Z,42.805,6.029,13.2980,4.59986,2469.433,2021-4-25T15:01:41Z
2021-04-25T13:03:34Z,42.805,6.029,13.2979,4.59986,2469.424,2021-4-25T15:04:44Z
2021-04-25T13:06:38Z,42.805,6.029,13.2981,4.59988,2469.433,2021-4-25T15:07:47Z
2021-04-25T13:09:41Z,42.805,6.029,13.2983,4.59986,2469.433,2021-4-25T15:10:50Z
2021-04-25T13:12:44Z,42.805,6.029,13.2979,4.59986,2469.447,2021-4-25T15:13:53Z
2021-04-25T13:15:47Z,42.805,6.029,13.2983,4.59986,2469.433,2021-4-25T15:16:56Z
2021-04-25T13:18:50Z,42.805,6.029,13.2981,4.59986,2469.424,2021-4-25T15:20:00Z
2021-04-25T13:21:53Z,42.805,6.029,13.2982,4.59986,2469.433,2021-4-25T15:23:03Z
2021-04-25T13:24:56Z,42.805,6.029,13.2986,4.59986,2469.433,2021-4-25T15:26:06Z
2021-04-25T13:27:59Z,42.805,6.029,13.2982,4.59986,2469.4,2021-4-25T15:29:09Z
2021-04-25T13:31:03Z,42.805,6.029,13.2982,4.59986,2469.433,2021-4-25T15:32:12Z
2021-04-25T13:34:06Z,42.805,6.029,13.2980,4.59988,2469.433,2021-4-25T15:35:15Z
2021-04-25T13:37:09Z,42.805,6.029,13.2982,4.59985,2469.41,2021-4-25T15:38:18Z
2021-04-25T13:40:12Z,42.805,6.029,13.2982,4.59986,2469.456,2021-4-25T15:41:21Z
2021-04-25T13:43:15Z,42.805,6.029,13.2983,4.59986,2469.41,2021-4-25T15:44:25Z
2021-04-25T13:46:18Z,42.805,6.029,13.2979,4.59986,2469.41,2021-4-25T15:47:28Z
2021-04-25T13:49:21Z,42.805,6.029,13.2980,4.59985,2469.47,2021-4-25T15:50:31Z
2021-04-25T13:52:25Z,42.805,6.029,13.2980,4.59986,2469.41,2021-4-25T15:53:34Z
2021-04-25T13:55:28Z,42.805,6.029,13.2981,4.59986,2469.41,2021-4-25T15:56:37Z
2021-04-25T13:58:31Z,42.805,6.029,13.2982,4.59987,2469.433,2021-4-25T15:59:40Z
2021-04-25T14:01:34Z,42.805,6.029,13.2980,4.59985,2469.433,2021-4-25T16:02:43Z
2021-04-25T14:04:37Z,42.805,6.029,13.2980,4.59986,2469.433,2021-4-25T16:05:46Z
2021-04-25T14:07:40Z,42.805,6.029,13.2978,4.59988,2469.433,2021-4-25T16:08:50Z
2021-04-25T14:10:43Z,42.805,6.029,13.2979,4.59987,2469.433,2021-4-25T16:11:53Z
2021-04-25T14:13:46Z,42.805,6.029,13.2979,4.59986,2469.48,2021-4-25T16:14:56Z
2021-04-25T14:16:50Z,42.805,6.029,13.2983,4.59986,2469.456,2021-4-25T16:17:59Z
2021-04-25T14:19:53Z,42.805,6.029,13.2978,4.59986,2469.456,2021-4-25T16:21:02Z
2021-04-25T14:22:56Z,42.805,6.029,13.2980,4.59986,2469.456,2021-4-25T16:24:05Z
2021-04-25T14:25:59Z,42.805,6.029,13.2980,4.59986,2469.456,2021-4-25T16:27:08Z
2021-04-25T14:29:02Z,42.805,6.029,13.2977,4.59987,2469.433,2021-4-25T16:30:11Z
2021-04-25T14:32:05Z,42.805,6.029,13.2979,4.59987,2469.494,2021-4-25T16:33:15Z
2021-04-25T14:35:08Z,42.805,6.029,13.2982,4.59986,2469.456,2021-4-25T16:36:18Z
2021-04-25T14:38:11Z,42.805,6.029,13.2983,4.59985,2469.456,2021-4-25T16:39:21Z
2021-04-25T14:41:15Z,42.805,6.029,13.2983,4.59985,2469.456,2021-4-25T16:42:24Z
2021-04-25T14:44:18Z,42.805,6.029,13.2982,4.59986,2469.456,2021-4-25T16:45:27Z
2021-04-25T14:47:21Z,42.805,6.029,13.2981,4.59986,2469.456,2021-4-25T16:48:30Z
2021-04-25T14:50:24Z,42.805,6.029,13.2982,4.59986,2469.456,2021-4-25T16:51:33Z
2021-04-25T14:53:27Z,42.805,6.029,13.2983,4.59986,2469.494,2021-4-25T16:54:36Z
2021-04-25T14:56:30Z,42.805,6.029,13.2982,4.59986,2469.456,2021-4-25T16:57:40Z
2021-04-25T14:59:33Z,42.805,6.029,13.2983,4.59986,2469.456,2021-4-25T17:00:43Z
2021-04-25T15:02:36Z,42.805,6.029,13.2982,4.59987,2469.503,2021-4-25T17:03:46Z
2021-04-25T15:05:40Z,42.805,6.029,13.2981,4.59986,2469.517,2021-4-25T17:06:49Z
2021-04-25T15:08:43Z,42.805,6.029,13.2982,4.59986,2469.517,2021-4-25T17:09:52Z
2021-04-25T15:11:46Z,42.805,6.029,13.2982,4.59986,2469.494,2021-4-25T17:12:55Z
2021-04-25T15:14:49Z,42.805,6.029,13.2982,4.59986,2469.503,2021-4-25T17:15:58Z